Regional Weather Roundup
Issued by NWS

Home | Current Version | Previous Version | Graphics & Text | Print | Product List | Glossary Off
Versions: 1 2 3 4 5 6 7 8 9 10 11 12 13 14 15 16 17 18 19 20 21 22 23 24 25 26 27

000
ASUS45 KBOU 242207
RWRCO

WEATHER ROUNDUP FOR COLORADO
NATIONAL WEATHER SERVICE DENVER/BOULDER CO
400 PM MDT FRI OCT 24 2014

NOTE: "FAIR" INDICATES FEW OR NO CLOUDS BELOW 12000 FEET WITH NO
SIGNIFICANT WEATHER AND/OR OBSTRUCTIONS TO VISIBILITY.

COZ001>005-013-030-031-242300-
...NORTHWEST COLORADO...

CITY           SKY/WX    TMP DP  RH WIND       PRES   REMARKS
CRAIG          SUNNY     74  26  16 SW17      30.24F
HAYDEN         SUNNY     72  23  16 W14G23    30.26S
MEEKER         SUNNY     73  23  15 SW14G21   30.27S
MOUNT WERNER   NOT AVBL
STEAMBOAT SPGS SUNNY     70  24  18 W16       30.28S
WALDEN         SUNNY     63  19  19 SW12G21   30.35S
$$

COZ006>008-011-242300-
...WEST CENTRAL VALLEYS...

CITY           SKY/WX    TMP DP  RH WIND       PRES   REMARKS
GRAND JUNCTION SUNNY     73  34  23 NW7       30.22F
MONTROSE       SUNNY     75  30  19 NW3       30.28S
EAGLE          SUNNY     72  21  15 W16G22    30.30S
RIFLE          SUNNY     72  34  24 W10       30.24F
DELTA          SUNNY     79  28  15 CALM      30.23S
NUCLA          SUNNY     73  28  19 E5        30.31F
$$

COZ017>023-064>068-242300-
...SOUTHWEST COLORADO...

CITY           SKY/WX    TMP DP  RH WIND       PRES   REMARKS
DURANGO        SUNNY     71  33  24 SW7       30.32S
CORTEZ         SUNNY     74  31  20 CALM      30.30S
PAGOSA SPRINGS SUNNY     69  23  18 S6        30.38S
TELLURIDE      SUNNY     64  24  21 W9        30.48S
WOLF CREEK PAS SUNNY     52  23  32 SW14        N/A
$$

COZ009-010-012-014-032>034-037-058>063-242300-
...CENTRAL COLORADO...

CITY           SKY/WX    TMP DP  RH WIND       PRES   REMARKS
ASPEN          SUNNY     69  24  18 N8        30.35S
BUENA VISTA    SUNNY     72  10   9 W14       30.33S
COPPER MTN     SUNNY     54   9  16 SW10G24   30.62S
BERTHOUD PASS  FAIR      43  41  93 W21G26    30.64S
COTTONWOOD PAS SUNNY     64  -4   6 W7G35     30.47S
GUNNISON       SUNNY     66  27  22 NW3       30.40S
KREMMLING      SUNNY     72  10   9 SW9G20      N/A
LEADVILLE      SUNNY     60  13  15 NW8G20    30.47R
MONARCH PASS   SUNNY     46  18  31 W32G41    30.71S
SALIDA         SUNNY     74  12   9 SW14G25   30.39S
SUNLIGHT       SUNNY     57  27  30 CALM      30.57S
WILKERSON PASS NOT AVBL
$$

COZ069>075-242300-
...SAN LUIS VALLEY/SANGRE DE CRISTO MOUNTAINS...

CITY           SKY/WX    TMP DP  RH WIND       PRES   REMARKS
ALAMOSA        SUNNY     70  19  14 VRB5      30.34F
LA VETA PASS   NOT AVBL
SAGUACHE       SUNNY     70  28  21 SW5       30.37S
$$

COZ035-036-038>040-242300-
...NORTHERN COLORADO FRONT RANGE...

CITY           SKY/WX    TMP DP  RH WIND       PRES   REMARKS
DENVER INTL AP MOSUNNY   81  19  10 SE10      30.14S
DMNS CITY PARK   N/A     81  20  10 SE7G14    30.12S
AURORA         MOSUNNY   80  21  11 SE12      30.16S
FRONT RANGE AP MOSUNNY   82  25  12 E15       30.16S
ERIE MUNI ARPT SUNNY     83  16   8 SE9       30.11S
BOULDER MUN AP SUNNY     82  27  13 S9        30.12R
CENTENNIAL     MOSUNNY   79  20  11 E9        30.16S
BROOMFIELD     MOSUNNY   82  21  10 E9        30.16R
FORT COLLINS   SUNNY     81  32  17 S9        30.11S
LONGMONT       SUNNY     85  25  11 E9        30.12S
$$

COZ041-046-047-076>085-087-088-242300-
...PIKES PEAK/PALMER DIVIDE AND SOUTHERN FOOTHILLS...

CITY           SKY/WX    TMP DP  RH WIND       PRES   REMARKS
COLO. SPRINGS  MOSUNNY   77  17  10 SE14      30.22R
A. F. ACADEMY  SUNNY     76  15  10 S10       30.22S
ELLICOTT       NOT AVBL
FALCON         SUNNY     76  16  10 S7        30.27S
FORT CARSON    NOT AVBL
LIMON          SUNNY     79  20  11 E7        30.16S
MONUMENT HILL  SUNNY     75  19  12 S9        30.25S
TRINIDAD       SUNNY     81  26  13 VRB3      30.18S
$$

COZ042>045-048>051-090-091-242300-
...NORTHEAST COLORADO...

CITY           SKY/WX    TMP DP  RH WIND       PRES   REMARKS
GREELEY ARPT   SUNNY     81  27  13 CALM      30.11S
AKRON          SUNNY     81  22  11 W6        30.12R
BURLINGTON     SUNNY     85  20   9 CALM      30.09S
WRAY           SUNNY     88  22   9 NW9       30.05S
STERLING       SUNNY     88  30  12 W7        30.06R
HOLYOKE        SUNNY     86  28  12 NW6       30.05S
FORT MORGAN    SUNNY     82  23  11 CALM      30.11S
$$

COZ086-089-092>099-242300-
...SOUTHEAST COLORADO...

CITY           SKY/WX    TMP DP  RH WIND       PRES   REMARKS
PUEBLO         SUNNY     84  18   8 SE8       30.10F
LA JUNTA       SUNNY     87  26  11 S6        30.08S
LAMAR          SUNNY     88  32  13 N5        30.04F
SPRINGFIELD      N/A     83  31  15 MISG      30.10S
$$



USA.gov is the U.S. government's official web portal to all federal, state and local government web resources and services.